Regional Weather Roundup
Issued by NWS

Home | Current Version | Previous Version | Graphics & Text | Print | Product List | Glossary On
Versions: 1 2 3 4 5 6 7 8 9 10 11 12 13 14 15 16 17 18 19 20 21 22 23 24 25 26 27 28 29 30 31 32 33 34 35 36 37 38 39 40 41 42 43 44 45 46 47 48 49 50
000
ASUS43 KOAX 200510
RWRNE

WEATHER ROUNDUP FOR NEBRASKA
NATIONAL WEATHER SERVICE OMAHA NE
1200 AM CDT WED SEP 20 2017

NOTES: SATELLITE DATA IS BEING USED TO AUGMENT CLOUD COVER ABOVE
       12000 FEET.
       "FAIR" INDICATES FEW OR NO CLOUDS BELOW 12,000 FEET WITH NO
       SIGNIFICANT WEATHER AND/OR OBSTRUCTIONS TO VISIBILITY.


NEZ001>004-019>022-054>056-200600-
NEBRASKA PANHANDLE

CITY           SKY/WX    TMP DP  RH WIND       PRES   REMARKS
SCOTTSBLUFF    CLOUDY    54  33  45 NW17G24   29.82R
ALLIANCE       CLOUDY    55  30  38 NW14      29.80R
CHADRON        CLOUDY    53  39  59 NW10      29.79R
GORDON         MOCLDY    57  33  39 NW14      29.74F
KIMBALL        CLOUDY    53  31  43 NW15G21   29.85R
SIDNEY         CLOUDY    51  31  46 NW16      29.83R
$$

NEZ057>060-069>072-079>082-200600-
SOUTHWEST NEBRASKA

CITY           SKY/WX    TMP DP  RH WIND       PRES   REMARKS
NORTH PLATTE   CLEAR     54  41  61 NW7       29.71R
IMPERIAL       CLEAR     57  31  37 NW13      29.77R
LEXINGTON      CLOUDY    64  46  51 NW10      29.68R
MCCOOK         CLEAR     61  39  44 NW9       29.71R
OGALLALA       CLEAR     56  32  39 W8        29.76R
$$

NEZ005>010-023>029-035>040-094-200600-
NORTH CENTRAL NEBRASKA

CITY           SKY/WX    TMP DP  RH WIND       PRES   REMARKS
VALENTINE      PTCLDY    61  44  53 W13       29.68R
AINSWORTH      CLEAR     58  49  71 NW7       29.66R
BROKEN BOW     CLOUDY    66  47  50 N17G28    29.66R
O`NEILL        CLOUDY    65  51  60 NW13G23   29.64R
ORD            CLOUDY    65  47  52 N16G28    29.63R
THEDFORD       CLEAR     58  46  62 NW5       29.71R
$$

NEZ041-046>049-061>064-073>077-083>087-200600-
SOUTH CENTRAL NEBRASKA

CITY           SKY/WX    TMP DP  RH WIND       PRES   REMARKS
GRAND ISLAND   PTCLDY    71  53  52 NW21G26   29.60R
AURORA         CLEAR     77  64  62 S12G21    29.54R
HASTINGS       CLOUDY    78  56  46 SW8G23    29.59R
HEBRON         CLOUDY    82  67  61 S18       29.57S
HOLDREGE       CLEAR     65  45  48 N12G17    29.66R
KEARNEY        CLEAR     68  47  46 N16G28    29.65R
YORK           CLEAR     79  68  69 S17G26    29.54F
$$

NEZ011>018-030>034-042>045-200600-
NORTHEAST NEBRASKA

CITY           SKY/WX    TMP DP  RH WIND       PRES   REMARKS
NORFOLK        CLEAR     78  70  76 S17G29    29.52R
ALBION         CLEAR     75  67  76 SW7       29.56R
BLAIR          CLOUDY    78  69  73 S20G29    29.59F
COLUMBUS       CLEAR     79  70  74 S17G25    29.52F
FREMONT        CLOUDY    78  69  74 SE18G28   29.57F
TEKAMAH        CLOUDY    79  69  71 S21G29    29.56S
WAYNE          CLEAR     77  73  87 S25G33    29.51S
$$

NEZ050>053-065>068-078-088>093-200600-
SOUTHEAST NEBRASKA

CITY           SKY/WX    TMP DP  RH WIND       PRES   REMARKS
LINCOLN        CLOUDY    80  71  74 S22G33    29.57F
OMAHA EPPLEY   CLOUDY    80  68  66 S22G30    29.59F
BEATRICE       CLOUDY    81  72  76 S20G26    29.61S
FALLS CITY     CLOUDY    79  69  71 S14G23    29.66S
NEBRASKA CITY  MOCLDY    77  72  83 S18       29.64F
PLATTSMOUTH    CLOUDY    77  70  78 SE16G22   29.62F
$$

NEZ044-045-051>053-067-200600-
OMAHA AREA

CITY           SKY/WX    TMP DP  RH WIND       PRES   REMARKS
OMAHA EPPLEY   CLOUDY    80  68  66 S22G30    29.59F
BLAIR          CLOUDY    78  69  73 S20G29    29.59F
FREMONT        CLOUDY    78  69  74 SE18G28   29.57F
MILLARD        CLOUDY    80  71  74 SE14G22   29.60S
OFFUTT AFB     CLOUDY    78  68  70 SE18G29   29.60F
PLATTSMOUTH    CLOUDY    77  70  78 SE16G22   29.62F
WAHOO          FAIR      78  70  77 S17G24    29.57F
$$



USA.gov is the U.S. government's official web portal to all federal, state and local government web resources and services.